Location: Lake Almanor
(40.2485°N, 121.1442°W)
Time: 02:20:45
(UTC-08:00)

STARLINK-1085 - Pass Details

Date: 29 January 2020
Orbit: 348 x 351 km, 53.0° (Epoch: 22 February)

Event Time Altitude Azimuth Distance (km) Brightness Sun altitude
Rises 18:45:00 0° 316° (NW) 2,179 7.2 -16.5°
Reaches altitude 10° 18:47:12 10° 329° (NNW) 1,331 5.9 -16.9°
Enters shadow 18:49:06 24° 4° (N) 780 4.3 -17.3°
